Location: Abeytas Fire Department
(34.4728°N, 106.8118°W)
Time: 05:11:30
(UTC+00:00)

Daily predictions for brighter satellites

Satellite Brightness Start Highest point End
(mag) Time Altitude Azimuth Time Altitude Azimuth Time Altitude Azimuth
Nadezhda 3 Rocket 4.2 02:02:31 10° N 02:08:40 80° W 02:14:49 10° S
In-Cosmos 22 Rocket 4.4 02:03:40 10° N 02:08:44 45° ENE 02:13:49 10° SSE
Cosmos 1125 Rocket 3.9 02:04:53 10° S 02:09:46 42° ESE 02:14:41 10° NNE
SL-19 R/B 4.2 02:07:03 10° SSE 02:12:15 64° ENE 02:17:42 10° N
Cosmos 1869 Rocket 3.5 02:08:21 10° S 02:12:43 80° E 02:17:09 10° N
SL-16 R/B 3.4 02:10:04 10° SE 02:13:57 19° E 02:17:52 10° NE
Cosmos 962 Rocket 4.5 02:08:17 10° S 02:14:29 76° E 02:20:38 10° N
Cosmos 2218 Rocket 4.2 02:11:22 10° SSE 02:17:13 49° E 02:23:06 10° NNE
SJ-6B 2.6 02:15:19 10° SSE 02:18:54 62° ENE 02:22:29 10° N
OAO 3 Copernicus 4.4 02:16:07 10° W 02:21:09 83° N 02:26:10 10° E
OAO 2 Rocket 3.4 02:17:59 10° WSW 02:23:11 82° S 02:28:18 10° E
COBE Rocket 4.4 02:22:36 10° N 02:27:40 70° WNW 02:32:45 10° SSW
USA 59 Rocket 1.8 02:27:18 10° NNE 02:29:47 16° NE 02:32:15 11° E
SL-8 R/B 4.4 02:27:11 10° WSW 02:31:50 56° NNW 02:36:28 10° NE
USA 234 3.3 02:25:40 10° NE 02:32:09 63° SE 02:38:37 10° SSW
BREEZE-M DEB (TANK) 3.4 02:30:59 10° NW 02:33:45 70° NE 02:41:32 14° ESE
Helios 1A Rocket 2.9 02:31:40 10° NNE 02:34:35 32° E 02:37:28 10° SSE
Cosmos 1400 Rocket 3.0 02:31:28 10° SSE 02:34:48 39° E 02:38:11 10° NNE
Cosmos 864 Rocket 4.5 02:31:42 10° S 02:37:57 83° E 02:44:10 10° N
Cosmos 2237 Rocket 3.1 02:36:29 10° SW 02:42:01 54° WNW 02:47:36 10° NNE
Cosmos 44 3.4 02:39:17 10° S 02:44:01 55° ESE 02:49:05 10° NE
Meteor 1-31 Rocket 3.1 02:42:18 18° SE 02:44:30 38° ENE 02:47:47 10° N
RESURS DK-1 3.4 02:41:03 10° SW 02:44:50 46° WNW 02:48:39 10° N
USA 238 DEB 4.2 02:37:59 10° NNW 02:45:34 63° ENE 02:52:18 16° SE
SL-4 R/B 2.8 02:42:34 10° S 02:45:40 25° SE 02:47:05 20° E
USA 238 4.2 02:38:10 10° NNW 02:45:45 62° ENE 02:52:26 16° SE
Meteor 1-21 Rocket 4.2 02:40:10 10° N 02:45:52 72° E 02:51:40 10° SSE
CSL-04 Rocket 3.7 02:44:37 10° SSE 02:50:06 67° ENE 02:55:36 10° N
SPOT 5 2.6 02:49:33 10° SSE 02:54:10 81° ENE 02:58:36 10° N
Gbstr 26 Del rocket 3.8 02:55:45 10° SSW 03:01:10 40° SE 03:04:52 15° ENE
Cosmos 2150 Rocket 4.3 02:57:06 10° S 03:01:51 39° E 03:06:38 10° NNE
SL-24 R/B 4.5 02:57:14 10° N 03:02:30 84° WNW 03:07:10 10° SSW
Okean O Rocket 3.4 03:03:31 16° ENE 03:03:31 16° ENE 03:06:06 10° NNE
Meteor 2-21 4.4 03:00:52 10° N 03:07:00 66° E 03:11:56 16° SSE
Terra 2.3 03:06:03 29° ESE 03:07:40 39° ENE 03:12:00 10° N
NOSS 2-1 (D) 4.4 03:04:54 10° N 03:08:20 32° ENE 03:09:27 28° E
Cosmos 1943 Rocket 3.1 03:04:29 10° NNW 03:09:53 47° WSW 03:15:12 10° S
Cosmos 1378 Rocket 3.6 03:06:06 10° N 03:10:24 57° E 03:12:07 33° SE
Timation 2 Rocket 4.2 03:05:27 10° NNW 03:11:55 76° WSW 03:17:32 15° SSE
SL-24 R/B 4.0 03:10:21 10° NNE 03:14:52 80° E 03:19:04 10° S
Cosmos 2369 Rocket 3.7 03:12:29 10° NNE 03:16:15 18° ENE 03:17:11 17° ENE
ADEOS 3.8 03:19:18 35° SE 03:21:06 51° ENE 03:26:08 10° N
NOSS 2-1 (C) 4.2 03:17:45 10° N 03:21:17 37° ENE 03:21:52 35° ENE
Meteor 1-11 4.1 03:17:57 10° N 03:23:28 86° W 03:27:13 21° S
Cosmos 1733 Rocket 4.4 03:19:32 10° SSW 03:23:37 39° W 03:27:45 10° N
Cosmos 1943 4.3 03:27:20 25° ENE 03:27:20 25° ENE 03:30:29 10° NE
Molniya-1 3.7 03:23:52 10° SW 03:26:13 45° NW 03:29:27 10° NNE
Cosmos 2242 Rocket 3.9 03:22:12 10° NNW 03:26:35 65° W 03:29:13 23° S
ASTEX 1 3.9 03:26:47 37° E 03:27:01 37° ENE 03:31:31 10° NNE
CZ-4B DEB 4.1 03:23:40 24° SSE 03:27:04 87° WSW 03:32:36 10° NNW
SL-08 R/B 4.4 03:23:40 24° SSE 03:27:23 59° E 03:33:22 10° NNE
CZ-4B R/B 3.2 03:25:12 35° SE 03:27:32 65° ENE 03:33:07 10° N
Cosmos 1025 Rocket 3.1 03:24:51 10° N 03:29:00 50° E 03:29:03 50° E
CBERS 1 LM4 rocket 4.2 03:28:23 43° SSE 03:29:55 77° ENE 03:34:40 10° N
CZ-4 R/B 1.9 03:29:16 27° SSW 03:30:57 49° W 03:34:34 10° NNW
Cosmos 1934 Rocket 4.2 03:30:37 36° SE 03:32:41 50° E 03:38:39 10° NNE
Cosmos 2278 Rocket 3.5 03:28:22 10° NW 03:33:29 36° WSW 03:38:19 11° SSW
Cosmos 1727 Rocket 3.9 03:28:38 10° N 03:34:59 81° E 03:38:11 31° SSE
BREEZE-M DEB (TANK) 4.2 03:28:19 10° SSW 03:34:32 29° S 03:34:32 29° S
IRS-1A Rocket 4.2 03:43:10 51° SE 03:44:29 70° ENE 03:50:08 10° N
Meteor 2-21 Rocket 4.4 03:38:57 10° N 03:45:08 87° W 03:47:57 35° S
OAO 3 Rocket 2.9 03:40:45 10° W 03:45:24 82° SSW 03:45:37 79° SSE
SL-08 R/B 3.7 03:45:11 10° N 03:50:03 65° WNW 03:53:21 20° SSW
MOS 1-B 4.3 03:54:48 59° E 03:55:21 62° ENE 04:01:03 10° N
MetOp-B 4.4 03:55:18 41° SSW 03:57:03 64° WSW 04:02:23 10° NNW
ERS-1 Rocket 3.6 03:55:23 35° SSW 03:57:07 52° W 04:02:00 10° NNW
SL-16 R/B 3.1 03:52:10 10° SW 03:57:35 47° WNW 04:03:03 10° N
BREEZE-M DEB (TANK) 4.0 03:54:54 10° WSW 03:58:31 57° NNW 04:10:05 10° NE
Cosmos 2292 Rocket 4.3 03:55:57 10° NNW 03:58:37 39° NNW 03:58:37 39° NNW
Milstar 3 4.0 03:54:33 10° SW 04:02:08 42° SSE 04:02:47 41° SE
Cosmos 2123 Rocket 3.9 03:57:51 10° N 04:04:09 74° E 04:04:52 67° SE
OAO 3 Copernicus 4.5 04:00:34 10° W 04:04:54 62° WSW 04:04:54 62° WSW
OAO 2 Rocket 3.4 04:02:41 10° W 04:07:25 75° WNW 04:07:25 75° WNW
Cosmos 2221 Rocket 4.1 04:05:25 10° N 04:08:57 56° NNW 04:08:57 56° NNW
Cosmos 1346 Rocket 4.5 04:10:04 10° NNW 04:12:22 29° WNW 04:12:22 29° WNW
Ariane Rocket 4.4 04:16:34 27° NNE 04:16:34 27° NNE 04:19:21 10° N
USA 59 Rocket 1.3 04:14:26 10° NW 04:17:48 38° WSW 04:17:48 38° WSW
Cosmos 1535 Rocket 4.4 04:19:08 67° NE 04:19:08 67° NE 04:24:38 10° N
Cosmos 1605 Rocket 4.1 04:21:40 61° NE 04:21:40 61° NE 04:26:51 10° NNE
Spot 2 Rocket 3.8 04:22:43 62° WNW 04:22:43 62° WNW 04:27:14 10° NNW
SL-4 R/B 4.2 04:19:27 10° WSW 04:20:47 19° W 04:20:47 19° W
Cosmos 1656 Rocket 4.2 04:19:43 10° NNW 04:24:58 48° WSW 04:25:13 48° WSW
Okean-O 4.0 04:31:17 37° NW 04:31:17 37° NW 04:34:13 10° NNW
Okean O Rocket 3.4 04:40:44 29° WNW 04:40:44 29° WNW 04:43:23 10° NNW
Terra 4.1 04:44:40 17° WSW 04:45:16 17° W 04:48:18 10° NW
Cosmos 2297 4.5 04:49:19 10° NNW 04:53:29 49° NW 04:53:29 49° NW
Cosmos 2369 Rocket 3.2 04:55:08 10° NNW 04:58:58 41° NW 04:58:58 41° NW
BREEZE-M DEB (TANK) 4.1 05:01:31 10° NW 05:04:49 55° N 05:04:49 55° N
NOSS 3-1 (C) 4.2 05:10:03 10° NW 05:17:07 74° WNW 05:17:07 74° WNW
ATLAS 3B R/B 4.4 06:44:51 10° N 06:50:58 27° NE 06:50:58 27° NE
ATLAS 2AS CENTAUR R/B 4.3 07:19:13 28° NNW 07:19:13 28° NNW 07:23:12 10° NNE
SL-16 R/B 4.5 08:08:21 10° NNE 08:11:55 19° NE 08:11:55 19° NE
ACS3 Solar Sail 3.3 08:09:51 10° NNE 08:12:45 30° NNE 08:12:45 30° NNE
ATLAS 3B R/B 4.3 08:35:00 10° NW 08:38:09 27° NW 08:38:09 27° NW
USA 267 4.0 08:38:51 10° NE 08:43:24 47° ENE 08:43:24 47° ENE
ADEOS II 4.4 08:56:34 10° NE 08:59:42 16° E 08:59:43 16° E
CZ-2D R/B 3.7 09:05:40 10° NE 09:09:35 28° E 09:09:35 28° E
Cosmos 2360 Rocket 3.5 09:20:35 10° N 09:25:49 37° ENE 09:29:01 21° ESE
Cosmos 2333 Rocket 3.0 09:22:38 10° NNW 09:26:40 46° N 09:26:40 46° N
CZ-3 Stage 3 3.0 09:33:58 68° SSE 09:33:58 68° SSE 09:50:52 10° E
ADEOS Rocket 3.5 09:28:33 10° N 09:36:12 70° WNW 09:36:33 69° W
Resurs 1-4 Rocket 2.6 09:32:53 10° NNE 09:37:29 58° ENE 09:37:29 58° ENE
ISS -0.5 09:41:04 14° NE 09:41:04 14° NE 09:41:37 10° NE
Cosmos 1833 4.4 09:41:51 65° N 09:41:51 65° N 09:46:42 10° NNE
Cosmos 2278 4.2 09:35:38 10° NNW 09:40:02 54° N 09:40:02 54° N
Cosmos 2322 Rocket 2.7 09:35:53 10° NNW 09:41:26 56° ENE 09:43:00 42° ESE
USA 281 3.6 09:45:37 49° WNW 09:45:37 49° WNW 09:50:33 10° NNW
H-2A R/B 2.5 09:45:03 10° NNE 09:50:07 53° E 09:50:28 52° ESE
Cosmos 2219 Rocket 3.4 09:49:38 10° N 09:54:54 39° ENE 10:00:09 10° SE
SL-16 R/B 3.6 09:51:08 10° NNW 09:53:41 27° NW 09:53:41 27° NW
ACS3 Solar Sail 3.9 09:54:58 10° NW 09:56:18 12° NW 09:56:18 12° NW
H-2A R/B 4.0 10:01:10 27° NNE 10:01:10 27° NNE 10:03:00 10° N
Meteor 1-11 Rocket 3.6 09:55:04 10° N 10:00:56 87° W 10:01:16 80° SSW
DMSP B5D2-2 4.0 10:09:11 70° WNW 10:09:11 70° WNW 10:13:56 10° NNW
Cosmos 1842 Rocket 3.8 10:14:10 59° ESE 10:14:24 60° E 10:18:39 10° NNE
Iridium 4 Rocket 4.5 10:20:38 29° NW 10:20:38 29° NW 10:23:37 10° NNW
Envisat 3.6 10:17:47 10° N 10:22:02 39° WNW 10:22:02 39° WNW
Cosmos 2333 4.1 10:16:52 10° NNW 10:22:35 85° WSW 10:28:18 10° SSE
Meteor 2-4 Rocket 3.5 10:22:34 62° SW 10:23:18 72° W 10:28:40 10° N
Aureole 1 Rocket 3.6 10:20:14 10° NNW 10:24:51 72° ENE 10:30:41 10° SSE
USA 267 4.4 10:22:21 10° NNE 10:28:00 32° NNW 10:30:45 23° WNW
Cosmos 1066 Rocket 4.0 10:26:15 42° S 10:28:10 84° E 10:33:31 10° N
ALOS 2.9 10:25:55 10° N 10:29:40 39° NW 10:29:40 39° NW
Alouette 2 Rocket 3.2 10:27:20 10° N 10:30:40 73° N 10:30:40 73° N
Spot 2 4.2 10:31:49 52° SSW 10:32:51 71° WSW 10:37:44 10° NNW
Cosmos 990 Rocket 4.2 10:30:29 10° NNW 10:35:01 46° W 10:35:01 46° W
Meteor 1-27 Rocket 4.3 10:35:32 39° W 10:36:12 40° WNW 10:41:45 10° N
ADEOS II 2.3 10:34:25 10° N 10:39:28 51° WNW 10:40:32 43° WSW
Cosmos 841 Rocket 3.4 10:38:30 48° SW 10:39:45 66° WNW 10:44:53 10° N
Cosmos 2297 Rocket 3.4 10:34:56 11° S 10:39:48 37° ESE 10:44:57 10° NE
Cosmos 1655 Rocket 4.0 10:33:46 10° NNW 10:39:51 58° W 10:42:55 29° SSW
BREEZE-M DEB (TANK) 4.2 10:35:54 10° NW 10:40:53 72° NE 10:52:50 10° ESE
Cosmos 1244 Rocket 4.5 10:37:11 10° N 10:43:26 84° E 10:49:35 10° S
CZ-2D R/B 3.0 10:45:35 10° N 10:50:04 29° WNW 10:50:50 28° W
H-2A R/B 2.1 10:46:55 10° NNE 10:50:53 66° ESE 10:53:10 24° S
Nadezhda 2 Rocket 4.4 10:47:43 10° N 10:53:51 88° E 10:59:58 10° S
Cosmos 1898 Rocket 3.6 10:49:39 10° NNW 10:54:48 74° ENE 10:59:57 10° SSE
COSMOS 2428 4.1 10:50:03 10° N 10:55:23 40° ENE 11:00:40 10° SE
NOSS 3-4 (A) 4.0 10:49:02 10° NNW 10:56:16 86° ENE 11:04:40 10° SSE
NOSS 3-4 (C) 4.0 10:49:34 10° NNW 10:56:50 85° ENE 11:05:14 10° SSE
SL-4 R/B 2.0 10:53:33 10° NW 10:57:24 70° NE 11:01:05 10° SE
Cosmos 1937 Rocket 4.1 10:53:42 10° N 10:58:48 57° ENE 11:03:48 10° SSE
DELTA 2 R/B (1) 3.5 10:56:33 31° WSW 10:59:16 81° NNW 11:04:49 10° ENE
SL-14 R/B 3.1 10:58:02 34° SSW 10:59:38 72° W 11:03:31 10° N
USA 234 3.8 10:54:10 10° ESE 11:00:33 61° NE 11:06:59 10° NW
SL-16 R/B 2.8 10:55:15 10° SSE 11:01:28 71° ENE 11:07:42 10° N
SL-24 DEB 4.4 11:00:38 10° N 11:04:51 72° WNW 11:07:33 22° SSW
Cosmos 1766 Rocket 4.4 11:02:25 10° NNW 11:06:08 29° W 11:06:22 28° W
CZ-3 R/B 3.4 10:34:57 10° W 11:06:08 67° S 11:14:17 10° ESE
Cosmos 2360 Rocket 3.1 11:04:59 10° NW 11:09:31 25° WSW 11:10:32 24° WSW
Meteor 1-18 Rocket 4.4 11:07:01 21° SW 11:10:33 50° W 11:15:56 10° N
BREEZE-M DEB (TANK) 4.1 11:07:15 16° W 11:11:19 27° NW 11:14:25 10° NNE
In-Cosmos 22 4.0 11:08:01 15° SSW 11:12:23 66° W 11:17:42 10° N
Meteor 2-10 Rocket 3.5 11:08:23 10° NNW 11:13:29 64° W 11:18:48 10° S
ISS -1.3 11:14:01 11° NW 11:15:27 13° NNW 11:17:05 10° N
CZ-2C R/B 2.6 11:11:42 10° NNE 11:16:29 68° E 11:21:06 10° S
Resurs 1-4 Rocket 3.9 11:14:34 10° NNW 11:17:18 14° WNW 11:18:31 13° W
EP 1 4.4 11:18:13 10° NNW 11:20:59 80° WSW 11:24:22 10° SSE
SL-08 RB Rocket 3.6 11:17:09 10° N 11:21:33 69° WNW 11:25:57 10° SSW
Cosmos 1408 Rocket 3.5 11:19:50 10° N 11:24:07 85° E 11:28:22 10° S
Cosmos 2322 Rocket 3.6 11:21:34 10° WNW 11:24:36 16° W 11:24:36 16° W
Cosmos 1814 Rocket 4.3 11:20:58 10° S 11:26:00 66° ESE 11:31:05 10° NNE
Cosmos 1703 4.3 11:24:33 10° SSE 11:27:33 38° E 11:30:35 10° NNE
H-2A R/B 3.7 11:25:48 10° NNW 11:28:56 16° WNW 11:30:58 13° W
Cosmos 2219 Rocket 3.2 11:34:07 10° NW 11:38:30 24° WSW 11:42:54 10° SSW
Cosmos 2237 Rocket 3.9 11:34:15 10° N 11:39:31 37° ENE 11:44:44 10° SE
Cosmos 1709 Rocket 4.0 11:37:41 10° N 11:43:49 89° E 11:49:58 10° S
ARGOS 4.2 11:40:30 10° NNW 11:44:58 27° WNW 11:49:25 10° SW
SL-24 R/B 4.2 11:42:29 10° N 11:46:13 42° WNW 11:49:42 10° SW
Cosmos 2227 Rocket 2.9 11:41:39 10° S 11:47:10 58° ESE 11:52:44 10° NNE
USA 276 3.5 11:46:37 10° NNW 11:48:05 21° NE 11:49:43 10° E
Cosmos 1151 Rocket 3.9 11:44:39 10° SW 11:48:17 28° WNW 11:51:56 10° NNW
SJ-11-01 4.2 11:45:07 10° N 11:49:46 85° WNW 11:54:23 10° SSW
Lacrosse 4 Rocket 3.7 11:47:50 10° SSE 11:50:52 22° ESE 11:53:57 10° NE
USA 307 1.6 11:51:41 10° SW 11:53:57 79° NW 11:57:18 10° NE
